Weather History for KMGE - January, 2013

Change the Weather History Date:

Friday, January 18, 2013

  Actual Average Record
Temperature  
Mean Temperature 42 °F -  
Max Temperature 53 °F 49 °F 60 °F (1999)
Min Temperature 32 °F 31 °F 12 °F (2003)
Degree Days  
Heating Degree Days 22    
Moisture  
Dew Point 30 °F    
Average Humidity 69    
Maximum Humidity 93    
Minimum Humidity 33    
Precipitation  
Precipitation 0.00 in - - ()
Sea Level Pressure  
Sea Level Pressure 30.44 in    
Wind  
Wind Speed 6 mph (NW)    
Max Wind Speed 10 mph    
Max Gust Speed 20 mph    
Visibility 10 miles    
Events      
Averages and records for this station are not official NWS values.
T = Trace of Precipitation, MM = Missing Value Source: NWS Daily Summary

Daily Weather History Graph

Daily Weather History Graph

Search for Another Location

Airport or City:

Trip Planner

Search our weather history database for the weather conditions in past years. The results will help you decide how hot, cold, wet, or windy it might be!

Date:

Astronomy

Jan. 18, 2013 Rise Set
Actual Time 7:42 AM EST 5:55 PM EST
Civil Twilight 7:15 AM EST 6:22 PM EST
Nautical Twilight 6:44 AM EST 6:52 PM EST
Astronomical Twilight 6:14 AM EST 7:22 PM EST
Moon 11:43 AM EST (1/18) 12:22 AM EST (1/18)
Length of Visible Light 11h 07m
Length of Day
10h 13m
Waxing Crescent, 47% of the Moon is Illuminated
Jan 18
Waxing Crescent
Jan 18
First Quarter
Jan 26
Full
Feb 3
Last Quarter
Feb 10
New

Hourly Weather History & Observations

Time (EST) Temp. Windchill Dew Point Humidity Pressure Visibility Wind Dir Wind Speed Gust Speed Precip Events Conditions
12:55 AM 34.9 °F 27.7 °F 31.8 °F 89% 30.30 in 10.0 mi NW 9.2 mph - N/A   Clear
1:55 AM 34.5 °F 27.3 °F 31.3 °F 88% 30.34 in 10.0 mi NW 9.2 mph - N/A   Clear
2:55 AM 34.0 °F 26.6 °F 30.2 °F 86% 30.35 in 10.0 mi NW 9.2 mph - N/A   Clear
3:55 AM 33.8 °F 25.8 °F 29.1 °F 83% 30.36 in 10.0 mi NNW 10.4 mph 19.6 mph N/A   Clear
4:55 AM 33.4 °F 25.9 °F 28.4 °F 82% 30.37 in 10.0 mi NW 9.2 mph - N/A   Clear
5:55 AM 33.3 °F 27.9 °F 27.9 °F 81% 30.40 in 10.0 mi NNW 5.8 mph - N/A   Clear
6:55 AM 32.9 °F 28.5 °F 28.0 °F 82% 30.41 in 10.0 mi NNW 4.6 mph - N/A   Clear
7:55 AM 33.1 °F 28.7 °F 27.9 °F 81% 30.43 in 10.0 mi Variable 4.6 mph - N/A   Clear
8:55 AM 36.1 °F 31.4 °F 28.9 °F 75% 30.47 in 10.0 mi NNW 5.8 mph - N/A   Clear
9:55 AM 40.1 °F 36.1 °F 30.7 °F 69% 30.50 in 10.0 mi NW 5.8 mph - N/A   Clear
10:55 AM 42.4 °F 40.7 °F 30.4 °F 62% 30.52 in 10.0 mi Variable 3.5 mph - N/A   Clear
11:55 AM 46.2 °F - 29.5 °F 52% 30.51 in 10.0 mi Calm Calm - N/A   Clear
12:55 PM 49.6 °F - 28.2 °F 44% 30.48 in 10.0 mi Variable 4.6 mph - N/A   Clear
1:55 PM 51.1 °F - 24.4 °F 35% 30.47 in 10.0 mi Calm Calm - N/A   Clear
2:55 PM 53.1 °F - 24.8 °F 33% 30.46 in 10.0 mi WSW 4.6 mph - N/A   Clear
3:55 PM 53.4 °F - 26.2 °F 35% 30.46 in 10.0 mi WSW 3.5 mph - N/A   Clear
4:55 PM 52.9 °F - 26.1 °F 35% 30.45 in 10.0 mi Calm Calm - N/A   Clear
5:55 PM 50.7 °F - 27.0 °F 40% 30.45 in 10.0 mi Calm Calm - N/A   Clear
6:55 PM 44.4 °F - 32.7 °F 64% 30.47 in 10.0 mi Calm Calm - N/A   Clear
7:55 PM 40.1 °F - 33.4 °F 77% 30.48 in 10.0 mi Calm Calm - N/A   Clear
8:55 PM 37.6 °F - 32.9 °F 83% 30.48 in 10.0 mi Calm Calm - N/A   Clear
9:55 PM 36.3 °F - 33.1 °F 88% 30.49 in 10.0 mi Calm Calm - N/A   Clear
10:55 PM 34.7 °F - 32.9 °F 93% 30.48 in 10.0 mi Calm Calm - N/A   Clear
11:55 PM 34.3 °F - 32.4 °F 92% 30.46 in 10.0 mi Calm Calm - N/A   Clear